Philadelphia, PA

8:46 PM EST on November 11, 2019 (GMT -0500)
Philadelphia International

Weather History for KPHL - September, 2019

Change the Weather History Date:

Tuesday, September 24, 2019

  Actual Average Record
Temperature  
Mean Temperature 71 °F 66 °F  
Max Temperature 78 °F 75 °F 95 °F (1970)
Min Temperature 64 °F 57 °F 40 °F (1963)
Degree Days  
Heating Degree Days 0 2  
Month to date heating degree days 2 17  
Since 1 July heating degree days 2 18  
Cooling Degree Days 6 3  
Month to date cooling degree days 195 147  
Year to date cooling degree days 1529 1264  
Growing Degree Days 22 (Base 50)    
Moisture  
Dew Point 55 °F    
Average Humidity 55    
Maximum Humidity 73    
Minimum Humidity 36    
Precipitation  
Precipitation 0.00 in 0.14 in 2.08 in (1912)
Month to date precipitation 0.99 2.98  
Year to date precipitation 37.02 31.00  
Snow  
Snow 0.00 in 0.00 in 0.00 in ()
Month to date snowfall 0.0 0.0  
Since 1 July snowfall 0.0 0.0  
Since 1 September snowfall 0.0 0.0  
Snow Depth 0.00 in    
Sea Level Pressure  
Sea Level Pressure 29.84 in    
Wind  
Wind Speed 9 mph (WNW)    
Max Wind Speed 18 mph    
Max Gust Speed 25 mph    
Visibility 10 miles    
Events Rain    
T = Trace of Precipitation, MM = Missing Value Source: NWS Daily Summary

Daily Weather History Graph

Daily Weather History Graph

Search for Another Location

Airport or City:

Astronomy

Sep. 24, 2019 Rise Set
Actual Time 6:50 AM EDT 6:55 PM EDT
Civil Twilight 6:23 AM EDT 7:22 PM EDT
Nautical Twilight 5:51 AM EDT 7:53 PM EDT
Astronomical Twilight 5:19 AM EDT 8:25 PM EDT
Moon 1:33 AM EDT (9/24) 4:38 PM EDT (9/24)
Length of Visible Light 12h 58m
Length of Day
12h 04m
Waning Crescent, 23% of the Moon is Illuminated
Sep 24
Waning Crescent
Sep 28
New
Oct 5
First Quarter
Oct 13
Full
Oct 21
Last Quarter

Hourly Weather History & Observations

Time (EDT) Temp. Dew Point Humidity Pressure Visibility Wind Dir Wind Speed Gust Speed Precip Events Conditions
12:08 AM 72.0 °F 68.0 °F 87% 29.81 in 3.0 mi WSW 10.4 mph - 0.22 in Rain Rain
12:16 AM 72.0 °F 68.0 °F 87% 29.80 in 7.0 mi WSW 5.8 mph - 0.24 in Rain Light Rain
12:54 AM 73.9 °F 68.0 °F 82% 29.81 in 10.0 mi WSW 6.9 mph - 0.24 in   Overcast
1:54 AM 73.0 °F 63.0 °F 71% 29.81 in 10.0 mi NW 4.6 mph - N/A   Scattered Clouds
2:54 AM 72.0 °F 61.0 °F 68% 29.81 in 10.0 mi WNW 6.9 mph - N/A   Partly Cloudy
3:54 AM 71.1 °F 59.0 °F 66% 29.81 in 10.0 mi WNW 9.2 mph - N/A   Partly Cloudy
4:54 AM 69.1 °F 59.0 °F 70% 29.81 in 10.0 mi West 6.9 mph - N/A   Clear
5:54 AM 66.0 °F 57.9 °F 75% 29.83 in 10.0 mi WSW 8.1 mph - N/A   Clear
6:54 AM 66.0 °F 55.9 °F 70% 29.84 in 10.0 mi West 6.9 mph - N/A   Partly Cloudy
7:54 AM 66.9 °F 55.9 °F 68% 29.86 in 10.0 mi West 10.4 mph - N/A   Clear
8:54 AM 69.1 °F 54.0 °F 58% 29.86 in 10.0 mi West 8.1 mph - N/A   Clear
9:54 AM 71.1 °F 52.0 °F 51% 29.87 in 10.0 mi WNW 10.4 mph - N/A   Partly Cloudy
10:54 AM 73.0 °F 52.0 °F 48% 29.87 in 10.0 mi NW 13.8 mph - N/A   Scattered Clouds
11:54 AM 73.9 °F 52.0 °F 46% 29.86 in 10.0 mi WNW 11.5 mph 21.9 mph N/A   Mostly Cloudy
12:54 PM 75.9 °F 52.0 °F 43% 29.84 in 10.0 mi WNW 17.3 mph 23.0 mph N/A   Mostly Cloudy
1:54 PM 75.9 °F 52.0 °F 43% 29.83 in 10.0 mi WNW 15.0 mph - N/A   Mostly Cloudy
2:54 PM 75.9 °F 51.1 °F 42% 29.83 in 10.0 mi West 13.8 mph - N/A   Mostly Cloudy
3:54 PM 75.9 °F 51.1 °F 42% 29.82 in 10.0 mi NW 11.5 mph - N/A   Mostly Cloudy
4:54 PM 77.0 °F 48.9 °F 37% 29.81 in 10.0 mi WNW 13.8 mph 20.7 mph N/A   Scattered Clouds
5:54 PM 77.0 °F 48.9 °F 37% 29.83 in 10.0 mi WNW 8.1 mph - N/A   Scattered Clouds
6:54 PM 75.0 °F 50.0 °F 41% 29.84 in 10.0 mi WNW 9.2 mph - N/A   Mostly Cloudy
7:54 PM 73.9 °F 48.0 °F 40% 29.86 in 10.0 mi NW 8.1 mph - N/A   Mostly Cloudy
8:54 PM 71.1 °F 48.9 °F 45% 29.88 in 10.0 mi NNW 5.8 mph - N/A   Scattered Clouds
9:54 PM 68.0 °F 48.9 °F 50% 29.89 in 10.0 mi NNW 6.9 mph - N/A   Partly Cloudy
10:54 PM 68.0 °F 48.9 °F 50% 29.89 in 10.0 mi NNW 4.6 mph - N/A   Mostly Cloudy
11:54 PM 64.9 °F 50.0 °F 58% 29.90 in 10.0 mi NNW 6.9 mph - N/A   Mostly Cloudy